Location: Favalello
(42.2939°N, 9.2706°E)
Time: 07:52:57
(UTC+00:00)

ALOS - Pass Details

Date: 06 December 2019
Orbit: 683 x 685 km, 97.8° (Epoch: 28 January)

Event Time Altitude Azimuth Distance (km) Brightness Sun altitude
Rises 16:28:47 0° 186° (S) 3,034 6.1 -7.1°
Reaches altitude 10° 16:31:09 10° 195° (SSW) 2,124 5.4 -7.5°
Maximum altitude 16:35:28 37° 263° (W) 1,061 4.0 -8.3°
Drops below altitude 10° 16:39:49 10° 331° (NNW) 2,140 4.9 -9.0°
Sets 16:42:13 0° 340° (NNW) 3,061 5.6 -9.4°
